Location: Borealis Mine
(38.3824°N, 118.7610°W)
Time: 03:10:40
(UTC+00:00)

Cosmos 1666 - Visible Passes

Search period start: 27 November 2022 00:00
Search period end: 07 December 2022 00:00
Orbit: 486 x 507 km, 82.5° (Epoch: 26 November)

Date Brightness Start Highest point End Pass type
(mag) Time Alt. Az. Time Alt. Az. Time Alt. Az.
28 Nov 6.2 14:23:22 10° E 14:24:00 10° E 14:24:36 10° ENE visible
30 Nov5.601:36:05SE01:36:05SE01:27:35NNEvisible
30 Nov 5.7 03:10:26 10° SSW 03:10:26 10° SSW 03:02:20 - NNW visible
01 Dec 3.6 02:42:20 10° NNW 02:46:00 48° W 02:49:38 10° SSW visible
02 Dec 2.8 02:21:11 10° N 02:24:58 75° W 02:28:44 10° S visible
03 Dec 2.5 02:00:07 10° N 02:03:54 72° E 02:07:40 10° SSE visible
03 Dec 5.2 14:10:36 10° SE 14:13:38 24° E 14:16:41 10° NE visible
04 Dec 2.9 01:39:08 10° N 01:42:48 46° E 01:46:26 10° SSE visible
04 Dec 5.7 13:50:13 10° SE 13:52:38 17° E 13:55:05 10° NE visible
05 Dec 3.4 01:18:15 10° NNE 01:21:40 31° ENE 01:25:03 10° SE visible
05 Dec 5.9 02:54:38 10° NW 02:56:38 14° W 02:58:40 10° WSW visible
05 Dec 6.0 13:30:23 10° ESE 13:31:41 11° E 13:32:58 10° ENE visible
06 Dec 3.9 00:57:31 10° NNE 01:00:30 22° ENE 01:03:27 10° SE visible
06 Dec 5.4 02:32:51 10° NW 02:35:40 20° W 02:38:29 10° SW visible
